This is the latest recevied weather packets stored in our database for station/object N9OJR. If no packets are shown the sender has not sent any weather packets the latest 10 day(s).
| Time | Temp. | Humidity | Pressure | Rain* | Wind** | Luminosity | Snow |
|---|---|---|---|---|---|---|---|
| 1777661006 | 6.11° C | 97% | 1008.3 hPa | 0 mm | - | 30 W/m² | - |
| 1777660701 | 6.11° C | 97% | 1008.2 hPa | 0 mm | - | 39 W/m² | - |
| 1777660399 | 6.67° C | 96% | 1008.2 hPa | 1.78 mm | - | 32 W/m² | - |
| 1777660095 | 6.67° C | 95% | 1008 hPa | 1.78 mm | - | 59 W/m² | - |
| 1777659792 | 7.22° C | 95% | 1008.1 hPa | 0 mm | - | 50 W/m² | - |
| 1777659489 | 7.78° C | 95% | 1007.9 hPa | 0 mm | - | 108 W/m² | - |
| 1777659186 | 7.22° C | 96% | 1007.9 hPa | 0 mm | - | 148 W/m² | - |
| 1777658883 | 7.22° C | 96% | 1007.9 hPa | 0 mm | - | 127 W/m² | - |
| 1777658579 | 7.78° C | 96% | 1008.1 hPa | 0 mm | - | 122 W/m² | - |
| 1777658276 | 7.78° C | 97% | 1008.1 hPa | 0 mm | - | 173 W/m² | - |
| 1777657974 | 7.22° C | 97% | 1008 hPa | 1.27 mm | - | 218 W/m² | - |
| 1777657670 | 7.22° C | 98% | 1007.8 hPa | 3.05 mm | - | 138 W/m² | - |
| 1777657367 | 7.22° C | 98% | 1007.9 hPa | 1.78 mm | - | 150 W/m² | - |
| 1777657065 | 7.22° C | 98% | 1008.1 hPa | 1.27 mm | - | 114 W/m² | - |
| 1777656762 | 7.22° C | 98% | 1008.1 hPa | 1.27 mm | - | 193 W/m² | - |
| 1777656458 | 7.22° C | 98% | 1008.1 hPa | 1.78 mm | - | 150 W/m² | - |
| 1777656153 | 7.22° C | 98% | 1008 hPa | 1.27 mm | - | 134 W/m² | - |
| 1777655849 | 6.67° C | 98% | 1008.1 hPa | 1.27 mm | - | 153 W/m² | - |
| 1777655546 | 6.67° C | 98% | 1008.2 hPa | 1.78 mm | - | 103 W/m² | - |
| 1777655243 | 6.67° C | 98% | 1008.3 hPa | 3.05 mm | - | 86 W/m² | - |
| 1777654940 | 6.67° C | 98% | 1008.2 hPa | 3.05 mm | - | 85 W/m² | - |
| 1777654637 | 6.11° C | 98% | 1007.9 hPa | 3.05 mm | - | 73 W/m² | - |
| 1777654335 | 6.67° C | 98% | 1008.1 hPa | 1.27 mm | - | 74 W/m² | - |
| 1777654033 | 6.67° C | 98% | 1008.1 hPa | 3.05 mm | - | 81 W/m² | - |
| 1777653729 | 6.67° C | 98% | 1008 hPa | 3.05 mm | - | 67 W/m² | - |
* Rain latest hour (hover to see other rain measurements)
** Current wind speed in m/s (hover to see current wind gust speed)